Weather History for Thermal, CA

Change the Weather History Date:

Thursday, May 1, 2014

  Actual Average Record
Temperature  
Mean Temperature 83 °F 75 °F  
Max Temperature 96 °F 91 °F 105 °F (1985)
Min Temperature 69 °F 58 °F 42 °F (1999)
Degree Days  
Heating Degree Days 0 0  
Month to date heating degree days 0 0  
Since 1 July heating degree days 821 1180  
Cooling Degree Days 18 10  
Month to date cooling degree days 18 10  
Year to date cooling degree days 380 266  
Growing Degree Days 29 (Base 50)    
Moisture  
Dew Point 15 °F    
Average Humidity 8    
Maximum Humidity 11    
Minimum Humidity 4    
Precipitation  
Precipitation 0.00 in 0.00 in 0.01 in (1980)
Month to date precipitation 0.00 0.00  
Year to date precipitation 0.08 1.77  
Since 1 July precipitation 1.55 3.15  
Snow  
Snow 0.00 in - - ()
Month to date snowfall 0.0  
Year to date snowfall 0.0  
Since 1 July snowfall 0.0  
Snow Depth 0.00 in    
Sea Level Pressure  
Sea Level Pressure 29.99 in    
Wind  
Wind Speed 10 mph (NNW)    
Max Wind Speed 22 mph    
Max Gust Speed 29 mph    
Visibility 10 miles    
Events      
T = Trace of Precipitation, MM = Missing Value Source: NWS Daily Summary

Daily Weather History Graph

Daily Weather History Graph

Search for Another Location

Airport:

Trip Planner

Search our weather history database for the weather conditions in past years. The results will help you decide how hot, cold, wet, or windy it might be!

Date:

Astronomy

May. 01, 2014 Rise Set
Actual Time 5:56 AM PDT 7:27 PM PDT
Civil Twilight 5:29 AM PDT 7:54 PM PDT
Nautical Twilight 4:57 AM PDT 8:26 PM PDT
Astronomical Twilight 4:24 AM PDT 8:59 PM PDT
Moon 7:49 AM PDT (5/1) 10:01 PM PDT (5/1)
Length of Visible Light 14h 25m
Length of Day
13h 31m
Waxing Crescent, 7% of the Moon is Illuminated
May 1
Waxing Crescent
May 6
First Quarter
May 14
Full
May 21
Last Quarter
May 28
New

Hourly Weather History & Observations

Time (PDT) Temp. Dew Point Humidity Pressure Visibility Wind Dir Wind Speed Gust Speed Precip Events Conditions
12:52 AM 69.1 °F 12.0 °F 11% 29.98 in 10.0 mi NNE 5.8 mph - N/A   Clear
1:52 AM 79.0 °F 7.0 °F 6% 30.00 in 10.0 mi NNE 11.5 mph 18.4 mph N/A   Clear
3:52 AM 78.1 °F 8.1 °F 7% 30.03 in 10.0 mi North 8.1 mph - N/A   Clear
4:52 AM 80.1 °F 10.0 °F 7% 30.04 in 10.0 mi North 8.1 mph 23.0 mph N/A   Clear
5:52 AM 79.0 °F 10.9 °F 8% 30.05 in 10.0 mi Variable 5.8 mph - N/A   Clear
6:52 AM 80.1 °F 12.9 °F 8% 30.07 in 10.0 mi NNW 12.7 mph 25.3 mph N/A   Clear
7:52 AM 82.0 °F 12.9 °F 7% 30.09 in 10.0 mi NW 10.4 mph - N/A   Clear
8:52 AM 84.0 °F 15.1 °F 8% 30.10 in 10.0 mi North 11.5 mph 18.4 mph N/A   Clear
9:52 AM 86.0 °F 12.9 °F 7% 30.10 in 10.0 mi North 13.8 mph 25.3 mph N/A   Clear
11:52 AM 91.0 °F 10.9 °F 5% 30.06 in 10.0 mi NNE 11.5 mph 20.7 mph N/A   Clear
12:52 PM 91.9 °F 9.0 °F 5% 30.03 in 10.0 mi North 11.5 mph 21.9 mph N/A   Clear
1:52 PM 93.9 °F 10.9 °F 5% 30.03 in 10.0 mi West 9.2 mph - N/A   Clear
2:52 PM 93.9 °F 10.0 °F 4% 29.97 in 10.0 mi West 13.8 mph - N/A   Clear
3:52 PM 95.0 °F 8.1 °F 4% 29.96 in 10.0 mi West 11.5 mph - N/A   Clear
4:52 PM 95.0 °F 6.1 °F 4% 29.91 in 10.0 mi West 9.2 mph - N/A   Clear
5:52 PM 93.9 °F 9.0 °F 4% 29.92 in 10.0 mi West 6.9 mph - N/A   Clear
6:52 PM 91.0 °F 18.0 °F 7% 29.88 in 10.0 mi West 5.8 mph - N/A   Clear
7:52 PM 77.0 °F 24.1 °F 14% 29.90 in 10.0 mi Calm Calm - N/A   Clear
8:52 PM 72.0 °F 27.0 °F 19% 29.94 in 10.0 mi North 3.5 mph - N/A   Clear
9:52 PM 66.9 °F 28.9 °F 24% 29.93 in 10.0 mi Calm Calm - N/A   Clear
10:52 PM 63.0 °F 30.9 °F 30% 29.93 in 10.0 mi Calm Calm - N/A   Clear
11:52 PM 57.9 °F 30.0 °F 35% 29.93 in 10.0 mi Calm Calm - N/A   Clear